Content
SEND FEEDBACK

Daily
Averages
Monthly
Summary
Mexico

CANCUN, QUINTANA ROO


Home > North America > Mexico > Quintana Roo
Elevation: 9 meters     Latitude: 21 09N     Longitude: 086 49W

WEATHER
 
SELECT A DAY
Number of Records: 163,931;   Date Range: 1/1/95 - 8/31/14
 
SHARE

PRINT THIS DATA

[ ← Previous Day ]
WEATHER ALMANAC - 21 APRIL, 2013
[ Next Day → ]
[ °F ]   °C
Weather ElementAverageHighLow
Temperature27.5 °C30 °C (10:41 am)24 °C (6:47 am)
Dewpoint22.4 °C24 °C (1:44 am)21 °C (12:44 pm)
Humidity74.5 %89 % (2:50 am)58 % (12:44 pm)
Barometer1015.6 hPa1017.3 hPa (10:41 am)1013.2 hPa (4:45 pm)
Wind Speed16.6 km/h25.9 km/h (11:01 am)
Weather ElementAverage
Visibility11.3 km
Wind DirectionSE (135.4 °)

Weather ElementTotal
Precipitation---
Cooling Degree Days8.7 (Base 18.3)
Growing Degree Days17 (Base 10)
Averaged from 24 records on 21 April, 2013
WEATHER CONDITIONS BREAKOUT
WIND DIRECTION BREAKOUT
WEATHER BY HOUR - 21 APRIL, 2013
[ °F ]   °C
Local TimeTemperatureDewpointHumidityBarometerVisibilityWind DirectionWind SpeedGust SpeedPrecipitationEventsConditions
1:44 AM27 °C24 °C84 %1015.2 hPa11.3 kmESE (120°)18.5 km/hMostly Cloudy
2:50 AM26 °C24 °C89 %1015.2 hPa11.3 kmESE (120°)16.7 km/hPartly Cloudy
3:42 AM26 °C23 °C83 %1014.9 hPa11.3 kmSE (130°)11.1 km/hPartly Cloudy
4:40 AM25 °C23 °C89 %1015.2 hPa11.3 kmSE (130°)9.3 km/hPartly Cloudy
5:47 AM25 °C23 °C89 %1015.2 hPa11.3 kmSSE (150°)9.3 km/hScattered Clouds
6:47 AM24 °C22 °C89 %1015.6 hPa11.3 kmSE (130°)7.4 km/hScattered Clouds
7:41 AM27 °C23 °C79 %1015.9 hPa11.3 kmSE (140°)13 km/hMostly Cloudy
8:41 AM28 °C22 °C70 %1016.6 hPa11.3 kmSSE (150°)16.7 km/hMostly Cloudy
9:44 AM29 °C22 °C66 %1016.9 hPa11.3 kmSSE (150°)22.2 km/hMostly Cloudy
10:41 AM30 °C22 °C62 %1017.3 hPa11.3 kmSE (140°)16.7 km/hMostly Cloudy
11:01 AM29 °C22 °C66 %1017.3 hPa11.3 kmSE (130°)25.9 km/hMostly Cloudy
11:42 AM29 °C22 °C66 %1017.3 hPa11.3 kmESE (120°)24.1 km/hMostly Cloudy
12:44 PM30 °C21 °C58 %1016.6 hPa11.3 kmESE (120°)22.2 km/hMostly Cloudy
1:43 PM30 °C21 °C58 %1015.6 hPa11.3 kmESE (120°)24.1 km/hScattered Clouds
2:43 PM30 °C22 °C62 %1014.9 hPa11.3 kmESE (120°)24.1 km/hScattered Clouds
3:44 PM30 °C22 °C62 %1014.9 hPa11.3 kmSE (140°)24.1 km/hScattered Clouds
4:45 PM29 °C22 °C66 %1013.2 hPa11.3 kmSE (130°)24.1 km/hScattered Clouds
5:45 PM29 °C21 °C62 %1013.5 hPa11.3 kmSSE (150°)18.5 km/hClear
6:42 PM27 °C22 °C74 %1014.2 hPa11.3 kmSE (140°)16.7 km/hScattered Clouds
7:41 PM27 °C22 °C74 %1014.2 hPa11.3 kmSSE (160°)13 km/hScattered Clouds
8:45 PM27 °C23 °C79 %1015.2 hPa11.3 kmSSE (160°)13 km/hScattered Clouds
9:48 PM26 °C23 °C83 %1014.2 hPa11.3 kmSE (140°)9.3 km/hScattered Clouds
10:47 PM25 °C23 °C89 %1015.6 hPa11.3 kmESE (120°)9.3 km/hScattered Clouds
11:46 PM25 °C23 °C89 %1015.9 hPa11.3 kmSE (140°)9.3 km/hScattered Clouds
Hourly data recorded from MMUN, located 0 kilometers away from Cancun, Quintana Roo







STORIES FROM OUR PARTNERS